Worland, WY

5:08 PM MST on February 20, 2018 (GMT -0700)
Worland Municipal

Weather History for KWRL - July, 2013

Change the Weather History Date:

Monday, July 29, 2013

  Actual Average Record
Temperature  
Mean Temperature 68 °F 73 °F  
Max Temperature 82 °F 90 °F 105 °F (2006)
Min Temperature 53 °F 56 °F 42 °F (2015)
Degree Days  
Heating Degree Days 0 0  
Month to date heating degree days 0 10  
Since 1 June heating degree days 45 103  
Since 1 July heating degree days 0 10  
Cooling Degree Days 3 8  
Month to date cooling degree days 322 212  
Year to date cooling degree days 472 308  
Since 1 June cooling degree days 455 296  
Growing Degree Days 18 (Base 50)    
Moisture  
Dew Point 49 °F    
Average Humidity 56    
Maximum Humidity 89    
Minimum Humidity 22    
Precipitation  
Precipitation T in 0.02 in 0.33 in (1973)
Month to date precipitation 0.20 0.66  
Year to date precipitation 2.98 4.97  
Sea Level Pressure  
Sea Level Pressure 29.90 in    
Wind  
Wind Speed 6 mph (South)    
Max Wind Speed 15 mph    
Max Gust Speed 18 mph    
Visibility 10 miles    
Events      
T = Trace of Precipitation, MM = Missing Value Source: NWS Daily Summary

Daily Weather History Graph

Daily Weather History Graph

Search for Another Location

Airport or City:

Trip Planner

Search our weather history database for the weather conditions in past years. The results will help you decide how hot, cold, wet, or windy it might be!

Date:

Astronomy

Jul. 29, 2013 Rise Set
Actual Time 5:57 AM MDT 8:38 PM MDT
Civil Twilight 5:23 AM MDT 9:11 PM MDT
Nautical Twilight 4:41 AM MDT 9:53 PM MDT
Astronomical Twilight 3:53 AM MDT 10:41 PM MDT
Moon No Moon Rise 2:00 PM MDT (7/29)
Length of Visible Light 15h 47m
Length of Day
14h 41m
Waning Gibbous, 50% of the Moon is Illuminated
Jul 29
Waning Gibbous
Aug 6
New
Aug 14
First Quarter
Aug 20
Full
Aug 28
Last Quarter

Hourly Weather History & Observations

Time (MDT) Temp. Dew Point Humidity Pressure Visibility Wind Dir Wind Speed Gust Speed Precip Events Conditions
12:53 AM 57.9 °F 50.0 °F 75% 29.85 in 10.0 mi ESE 4.6 mph - N/A   Scattered Clouds
1:53 AM 62.1 °F 52.0 °F 70% 29.83 in 10.0 mi SW 3.5 mph - N/A   Overcast
2:53 AM 57.9 °F 52.0 °F 81% 29.84 in 10.0 mi South 6.9 mph - N/A   Clear
3:53 AM 55.0 °F 48.9 °F 80% 29.86 in 10.0 mi Calm Calm - N/A   Clear
4:53 AM 55.9 °F 48.9 °F 77% 29.87 in 10.0 mi ESE 8.1 mph - N/A   Clear
5:53 AM 54.0 °F 50.0 °F 86% 29.88 in 10.0 mi SSE 4.6 mph - N/A   Clear
6:53 AM 57.9 °F 51.1 °F 78% 29.88 in 10.0 mi Calm Calm - N/A   Clear
7:53 AM 64.0 °F 52.0 °F 65% 29.90 in 10.0 mi Calm Calm - N/A   Clear
8:53 AM 64.9 °F 54.0 °F 68% 29.91 in 10.0 mi Variable 3.5 mph - N/A   Clear
9:53 AM 72.0 °F 52.0 °F 49% 29.91 in 10.0 mi NW 6.9 mph - N/A   Clear
10:53 AM 75.0 °F 52.0 °F 44% 29.92 in 10.0 mi North 10.4 mph - N/A   Clear
11:53 AM 77.0 °F 52.0 °F 42% 29.92 in 10.0 mi WNW 8.1 mph - N/A   Clear
1:53 PM 80.1 °F 48.9 °F 34% 29.89 in 10.0 mi Variable 3.5 mph - N/A   Clear
2:53 PM 79.0 °F 48.9 °F 35% 29.89 in 10.0 mi NNE 5.8 mph - N/A   Partly Cloudy
3:53 PM 78.1 °F 52.0 °F 40% 29.93 in 10.0 mi West 4.6 mph - N/A   Scattered Clouds
4:53 PM 82.0 °F 45.0 °F 27% 29.87 in 10.0 mi ESE 13.8 mph 19.6 mph 0.00 in   Mostly Cloudy
5:53 PM 82.0 °F 39.0 °F 22% 29.88 in 10.0 mi South 3.5 mph - N/A   Clear
6:53 PM 78.1 °F 50.0 °F 37% 29.90 in 10.0 mi South 9.2 mph - N/A   Clear
7:53 PM 75.9 °F 51.1 °F 42% 29.92 in 10.0 mi South 10.4 mph - N/A   Partly Cloudy
8:53 PM 73.9 °F 45.0 °F 35% 29.93 in 10.0 mi South 4.6 mph - N/A   Clear
9:53 PM 70.0 °F 45.0 °F 41% 29.94 in 10.0 mi South 9.2 mph - N/A   Unknown
10:53 PM 69.1 °F 45.0 °F 42% 29.93 in 10.0 mi SSE 9.2 mph - N/A   Clear
11:53 PM 69.1 °F 45.0 °F 42% 29.95 in 10.0 mi SSW 10.4 mph - N/A   Clear